Location: Crocus Hill
(18.2167°N, 63.0667°W)
Time: 03:18:19
(UTC+00:00)

Delta 128 - Pass Details

Date: 26 January 2020
Orbit: 608 x 1216 km, 28.0° (Epoch: 16 February)

Event Time Altitude Azimuth Distance (km) Brightness Sun altitude
Exits shadow 09:02:25 83° 91° (E) 611 3.4 -24.6°
Drops below altitude 10° 09:06:47 10° 112° (ESE) 1,977 7.2 -23.6°
Sets 09:09:11 0° 113° (ESE) 2,925 8.4 -23.1°
